RH
36 43 50 47 38 26 14 10 10 10 11 14 16 18 18 19 19 19 19 19 20 20 21 22 23 24 26 28 31 32 34 35 36 37 38 40 42 45 48 50 52 52 52 52 50 49 47 45 43 41 39 38 36 35 33 31 30 28 26 24 23 22 20 19 18 17 16 14 14 13 13 12 12 12 11 11 11 11 10 10 10 10 10 10 10 10
26 31 38 40 38 30 18 14 12 12 13 16 18 20 22 23 23 23 22 22 22 22 22 22 22 23 24 26 28 31 33 34 35 36 37 38 39 40 42 43 45 46 47 47 47 46 46 44 43 41 40 38 36 34 32 30 29 27 26 24 23 22 20 19 18 17 16 15 14 14 14 13 12 12 12 12 12 11 11 11 11 10 10 10 10 10
23 24 28 32 32 28 21 18 16 16 17 19 22 23 25 26 27 27 26 26 25 24 24 24 25 26 27 29 31 34 36 37 38 39 40 40 40 40 40 41 42 42 42 42 42 42 42 42 42 40 39 38 36 35 33 32 30 28 27 26 24 23 22 20 20 18 18 17 16 16 15 14 14 14 13 13 12 12 12 12 12 11 11 11 10 10
26 24 24 26 27 26 22 20 20 20 21 23 25 27 28 30 30 30 30 29 29 28 28 28 29 30 31 33 35 38 40 42 43 44 44 44 44 44 43 43 42 42 42 42 42 42 42 41 41 40 40 39 38 37 35 34 32 30 29 27 26 24 24 22 21 20 20 19 18 17 17 16 16 15 15 14 14 14 13 13 13 12 12 12 12 11
30 28 26 26 26 26 24 24 24 24 25 27 29 31 33 34 35 34 34 33 32 32 32 32 32 34 35 36 38 40 42 44 46 47 48 48 48 48 47 47 46 46 45 45 44 44 44 44 44 43 43 42 41 40 38 37 35 33 31 30 28 26 25 24 23 22 21 20 20 19 18 18 18 17 17 16 16 16 15 15 15 14 14 14 14 13
37 33 30 29 28 27 26 27 28 28 29 31 33 35 38 38 39 39 38 37 36 36 35 35 36 36 38 39 40 42 44 46 47 48 50 50 50 51 51 50 50 50 49 49 49 49 49 49 49 48 48 47 46 44 42 40 38 36 34 32 30 28 27 26 25 24 23 22 22 21 20 20 20 19 19 19 18 18 18 18 17 17 17 16 16 15
46 41 37 34 32 31 31 31 31 31 33 34 36 39 40 42 42 42 42 42 40 40 39 38 38 39 40 40 42 43 44 46 47 49 50 51 52 52 53 53 53 53 53 54 54 54 54 54 54 54 53 52 50 49 47 44 42 40 38 35 33 31 30 28 27 26 24 24 23 23 22 22 22 21 21 21 20 20 20 20 20 20 20 19 18 18
54 50 44 41 38 36 36 35 35 36 37 38 40 42 43 44 45 46 45 44 44 43 42 42 42 41 42 42 43 44 45 46 47 48 50 51 52 53 54 55 55 56 56 57 58 58 59 59 59 58 58 57 55 54 52 49 47 44 42 39 37 35 33 31 30 28 27 26 26 24 24 24 24 23 23 23 22 22 22 22 22 22 22 22 21 20
60 57 52 48 45 43 42 40 40 41 42 42 43 44 46 47 48 48 49 49 48 46 45 45 44 44 44 44 44 45 46 46 48 49 50 51 52 53 54 56 56 58 58 60 60 62 62 62 62 62 62 61 60 58 56 54 52 49 46 44 42 39 37 36 34 32 31 29 28 27 26 26 26 25 24 24 24 24 24 24 24 24 24 24 23 23
64 62 59 55 51 49 48 46 46 46 48 47 47 47 48 50 51 52 53 53 52 51 50 49 48 48 47 47 47 47 48 48 49 50 51 52 53 54 55 56 58 58 60 61 62 64 64 64 64 64 64 64 63 62 60 58 56 54 51 48 46 44 42 40 39 37 35 34 32 31 30 29 28 28 27 27 27 26 26 26 26 26 26 25 25 24
66 65 63 60 57 54 52 51 51 52 54 52 52 51 52 53 54 55 57 58 58 57 56 54 53 53 53 52 52 51 52 53 53 54 54 54 55 56 57 58 59 60 61 62 63 64 65 65 65 65 65 65 64 64 63 62 60 58 56 53 51 49 47 46 44 42 40 38 37 35 34 33 32 31 30 30 30 29 29 28 28 27 27 26 26 26
65 66 65 63 61 58 56 54 55 56 58 57 57 57 57 56 57 58 60 61 62 63 63 61 60 58 58 58 58 58 58 58 58 58 58 58 58 59 60 60 61 62 63 64 64 64 65 64 64 64 64 64 64 64 64 63 62 60 58 56 55 53 52 50 48 47 45 43 42 40 38 37 36 35 34 33 33 32 32 31 30 29 28 28 28 27
62 63 64 62 61 59 57 56 56 57 58 58 58 58 60 60 61 62 62 64 66 68 69 68 66 65 64 64 64 64 65 65 65 64 64 64 63 63 64 64 64 65 65 65 65 65 65 64 64 63 63 63 63 63 63 62 62 60 60 58 57 56 55 53 52 50 48 46 45 44 42 40 39 38 37 36 36 35 34 34 32 31 30 29 29 28
58 60 61 60 59 58 57 58 60 60 60 58 58 58 59 61 64 65 64 65 67 70 71 70 70 70 69 69 69 69 70 71 72 71 70 69 68 67 68 68 68 68 67 67 66 65 64 64 64 63 62 62 62 62 62 62 61 60 60 59 58 57 56 55 53 52 50 49 48 46 45 43 42 40 39 38 38 37 37 36 34 33 32 31 30 30
55 57 58 58 57 58 61 66 68 68 67 65 63 61 60 62 63 64 64 66 68 69 71 70 70 70 71 70 69 70 72 74 74 74 73 71 70 70 70 70 70 69 68 67 66 64 64 64 63 62 62 62 62 62 62 61 61 60 60 60 59 58 57 56 54 53 51 50 49 48 46 44 43 42 40 40 39 39 38 37 36 34 33 32 31 31
54 54 54 53 55 58 65 73 76 76 76 74 72 69 65 63 63 64 66 66 68 69 71 70 70 70 71 69 68 68 70 73 74 73 72 70 70 70 70 70 70 69 68 66 64 62 62 62 61 61 61 61 61 61 62 61 61 61 60 60 60 58 58 56 55 54 52 52 50 49 48 46 44 42 42 40 40 40 38 37 36 35 34 33 32 32
56 54 51 50 52 55 62 72 76 76 76 76 75 73 70 67 67 68 69 69 70 70 71 71 72 73 72 70 67 66 66 69 70 70 70 68 67 66 67 68 67 66 65 63 61 58 58 57 57 57 58 59 60 60 60 60 61 60 60 60 60 60 59 58 56 55 54 53 52 51 50 48 46 44 42 42 40 39 38 37 36 35 34 34 33 33
58 56 53 50 49 50 55 66 72 76 76 76 75 74 72 70 70 70 70 70 70 71 71 72 72 73 72 70 67 63 62 65 66 65 65 64 62 62 63 64 63 62 61 58 56 53 52 51 51 52 53 55 56 58 58 58 59 59 60 60 60 60 60 60 58 57 56 56 55 54 52 50 48 46 43 42 40 38 37 36 35 34 34 34 34 34
62 60 58 54 51 49 51 58 66 73 76 76 75 74 73 71 70 70 70 70 71 71 71 72 72 72 72 70 66 63 62 61 61 60 61 60 60 60 60 60 58 57 56 55 53 50 49 48 48 48 49 51 52 54 54 55 56 57 58 59 60 62 62 62 60 60 60 59 58 57 55 53 50 47 44 42 40 38 36 35 34 34 34 35 36 36
67 66 64 60 58 56 55 56 60 67 73 74 74 74 74 72 70 70 70 70 71 71 70 70 70 70 70 69 66 64 63 62 61 61 61 61 60 60 60 60 58 56 57 57 57 56 55 53 52 50 50 50 50 51 51 52 53 54 56 58 61 63 64 64 63 63 63 63 62 61 58 56 52 49 46 42 40 38 36 35 34 35 35 36 37 38
70 70 68 66 66 65 64 62 63 66 71 73 74 74 72 72 71 70 69 69 70 70 70 70 69 68 68 67 66 65 66 67 67 66 66 66 65 64 63 63 62 62 64 66 66 66 66 64 62 61 60 57 54 52 51 51 52 53 56 59 62 64 66 66 66 66 67 67 66 65 62 58 55 51 47 44 40 38 36 36 36 36 37 38 39 40
69 70 70 71 71 71 70 70 70 71 72 73 74 73 72 71 70 69 68 67 67 67 67 67 66 66 65 65 65 68 72 74 74 73 74 74 73 71 70 70 70 69 70 71 72 72 72 72 71 71 69 66 62 58 56 55 55 56 58 61 64 66 66 66 66 67 68 69 69 68 65 61 57 53 49 45 42 39 37 36 36 37 38 40 42 43
66 67 68 69 70 70 70 72 72 72 72 72 72 71 70 70 68 67 64 63 62 61 61 61 61 61 63 64 68 72 76 77 76 76 77 78 77 76 75 75 74 72 70 72 73 73 72 71 71 71 71 69 67 65 64 64 63 64 64 66 66 66 65 64 64 65 66 68 69 69 67 64 60 56 51 46 42 40 38 37 37 38 40 42 44 46
64 66 68 68 68 68 68 70 71 71 71 71 70 69 68 66 64 62 58 57 56 56 57 58 60 61 62 67 71 75 77 77 76 76 77 78 77 76 74 75 74 74 72 74 74 73 71 70 68 66 64 63 64 66 70 72 72 71 70 70 68 66 63 61 60 60 63 66 68 69 69 66 62 58 53 48 43 40 38 37 37 38 40 43 46 48
63 66 70 71 70 69 68 69 70 70 70 70 69 67 65 62 60 58 56 56 56 56 57 60 62 64 67 72 74 76 76 76 76 76 76 77 76 76 76 76 74 74 74 74 73 72 71 69 65 60 54 52 55 59 65 70 72 72 71 70 69 66 62 60 58 58 60 63 66 68 69 68 65 60 54 48 43 40 37 36 37 38 40 43 47 50
63 67 72 73 73 72 70 70 70 70 70 69 68 66 64 62 60 60 60 60 60 61 63 66 68 70 72 74 76 75 74 76 75 74 74 76 76 76 76 76 75 74 73 73 72 71 71 68 62 54 45 41 42 44 50 57 62 66 68 69 68 66 63 61 60 60 61 64 66 68 70 69 66 61 54 48 42 39 37 36 37 38 40 44 48 51
63 68 73 74 74 74 72 72 71 71 71 70 70 69 68 68 68 68 69 69 70 71 72 73 73 73 74 74 74 74 74 74 74 74 73 74 74 74 74 74 74 74 74 73 72 70 70 68 62 53 42 36 32 32 34 39 44 51 56 60 62 63 64 64 64 64 65 66 68 69 70 69 66 61 53 46 42 39 38 38 38 40 42 45 48 52
62 68 74 76 76 74 74 73 73 73 74 74 74 74 74 74 74 76 76 76 76 76 76 76 75 74 74 74 74 73 74 74 73 72 72 71 71 70 70 70 71 72 72 73 72 70 70 68 64 57 48 38 31 27 26 28 31 36 42 47 53 58 62 65 67 68 69 69 70 70 70 68 64 58 51 45 41 39 38 39 40 42 44 46 49 52
62 68 74 76 76 76 74 74 74 74 76 76 76 76 77 76 76 76 76 76 76 76 76 76 76 74 74 73 73 73 73 72 70 69 68 66 64 62 61 62 63 64 68 71 72 71 70 68 66 62 56 45 36 30 26 26 27 30 36 42 48 55 60 64 67 69 70 70 70 70 70 67 62 55 48 43 40 39 39 40 42 45 47 49 50 53
63 69 75 76 76 76 76 75 74 75 76 76 77 76 76 76 76 76 76 76 76 76 76 76 74 74 73 73 72 72 71 69 67 64 61 58 55 52 50 51 52 54 60 66 70 70 69 67 66 64 60 51 43 36 31 30 30 33 38 45 52 57 61 64 66 68 69 70 70 70 68 64 58 51 44 40 39 38 40 42 44 47 49 50 52 53
66 71 76 76 76 76 76 76 76 76 76 76 76 76 76 76 76 76 76 76 76 76 76 74 74 73 72 72 72 70 68 64 60 57 53 51 48 46 44 44 44 46 53 60 64 67 68 66 65 63 60 54 48 42 37 35 36 40 46 52 58 62 64 65 66 66 67 68 68 67 65 60 53 47 42 39 38 38 40 43 46 49 51 52 54 55
69 73 76 76 76 76 76 76 76 76 76 76 76 76 76 76 76 76 76 76 75 75 74 74 73 72 72 71 69 67 63 58 53 50 47 46 45 44 43 43 44 46 50 55 60 63 66 66 64 62 60 56 52 46 42 41 43 47 53 58 63 65 66 66 66 66 66 66 65 63 60 54 48 42 38 37 38 40 42 46 49 52 54 55 57 58
72 75 76 76 76 76 76 76 76 76 76 75 75 75 75 75 75 75 75 74 74 74 74 73 72 71 70 68 65 62 57 52 48 46 45 45 46 46 46 46 48 50 52 56 59 62 66 68 67 65 63 60 56 52 48 48 49 52 57 61 64 66 68 68 67 66 65 64 62 59 54 48 43 40 37 37 39 42 46 50 53 56 57 59 60 62
74 76 76 76 76 76 76 76 76 76 76 74 74 74 74 74 74 74 74 74 73 73 72 72 71 69 67 64 61 57 53 50 47 46 46 48 50 51 52 53 54 56 58 60 63 66 70 70 70 69 67 64 61 58 55 54 55 57 59 62 64 66 68 68 67 66 65 62 59 55 50 44 40 38 37 40 43 47 51 54 57 59 60 62 64 65
76 76 76 76 76 76 76 76 76 76 76 75 74 74 73 72 72 72 72 72 72 71 71 70 68 66 62 60 57 54 52 50 49 50 52 55 57 58 60 60 60 61 63 64 67 70 72 72 71 70 69 68 66 63 61 60 60 60 61 62 64 66 67 67 67 66 64 61 57 52 47 43 40 39 40 44 48 52 56 58 60 62 63 64 64 65
76 76 76 76 76 76 76 76 76 76 76 75 74 74 73 72 71 70 70 69 69 68 67 65 62 60 57 55 54 54 53 53 54 56 60 62 64 66 67 66 66 67 68 69 70 71 72 71 70 69 68 67 66 65 64 63 63 63 64 64 64 66 66 67 66 66 64 60 57 52 47 43 42 42 45 49 52 56 58 60 61 62 63 63 62 61
76 76 76 76 76 76 76 76 76 76 76 76 75 74 74 72 71 70 68 67 66 63 60 58 56 54 54 54 55 56 58 59 62 64 68 70 72 72 73 72 72 72 72 74 74 73 72 71 69 67 65 64 64 63 63 63 64 64 65 65 65 66 66 66 66 65 63 60 56 52 48 46 46 47 50 53 55 57 58 60 61 61 61 60 58 55
76 76 76 76 76 76 76 76 76 76 76 76 75 74 74 73 72 70 68 65 62 59 56 54 53 53 54 57 60 62 65 68 70 73 74 76 76 76 76 76 76 75 75 76 76 75 74 73 71 69 66 64 62 61 61 62 63 64 64 65 65 66 66 66 66 65 63 60 57 53 50 50 51 52 54 55 56 57 58 59 59 58 56 53 50 45
76 76 76 76 76 76 76 76 76 76 76 76 75 74 74 73 72 70 68 65 62 59 57 56 56 58 60 62 65 68 72 74 76 76 77 77 77 77 77 77 77 76 76 76 76 76 76 75 74 72 70 67 65 63 62 62 63 64 64 65 66 66 66 66 66 66 64 62 58 56 54 54 55 55 56 56 56 57 58 57 56 54 50 45 40 34
76 75 74 74 74 74 75 75 75 74 74 74 74 74 74 74 73 72 69 66 64 63 62 62 63 64 65 67 69 72 74 76 77 77 77 77 77 77 78 77 77 76 76 76 76 76 76 76 75 74 72 71 69 67 66 65 65 66 66 67 68 67 66 66 66 66 65 63 62 60 58 58 57 57 56 56 56 56 56 55 52 47 42 36 30 24
75 74 74 74 74 74 74 74 74 74 74 74 74 74 74 74 74 74 72 71 70 69 69 70 70 70 70 71 72 73 74 76 77 77 77 77 78 78 78 78 77 76 76 76 76 76 76 76 76 74 74 73 72 71 70 69 68 68 68 69 68 68 66 66 66 67 66 65 64 62 61 60 58 57 56 56 55 54 53 50 46 40 34 28 22 16
76 75 74 74 74 73 73 73 73 73 73 73 74 74 74 74 75 76 76 75 75 74 74 74 74 74 74 73 72 72 74 76 76 77 77 77 77 78 78 78 78 77 77 77 76 76 76 76 76 76 74 74 74 74 73 72 70 70 70 70 68 67 66 66 67 68 68 67 66 63 61 58 57 55 54 53 52 51 48 45 40 35 28 22 17 12
75 74 74 74 73 73 72 72 72 72 72 72 73 73 72 73 74 74 76 76 76 76 76 76 76 76 76 76 74 74 73 74 76 76 77 77 77 77 78 78 78 78 78 78 78 77 76 76 76 76 75 75 76 76 76 74 72 70 70 68 68 68 68 68 68 68 69 67 65 62 58 56 53 51 50 49 48 46 44 40 36 30 25 20 14 10
75 74 74 74 73 72 72 72 72 72 72 72 72 72 71 72 72 74 75 76 76 76 76 76 76 76 77 77 76 76 74 74 74 76 76 76 76 76 77 77 78 78 78 78 78 78 77 77 76 76 76 76 76 76 75 73 71 70 68 67 68 68 70 69 69 69 69 66 62 58 54 50 47 45 44 44 43 42 40 36 32 28 24 20 15 12
74 74 74 74 73 73 72 72 72 72 71 71 71 71 70 71 71 72 74 76 76 76 76 76 76 77 78 77 76 76 76 76 76 76 76 76 76 76 76 77 77 77 78 78 78 78 78 78 77 77 76 77 77 76 75 73 70 68 67 67 68 70 70 70 69 69 68 63 58 52 48 44 42 40 40 40 39 38 36 33 30 27 24 21 18 14
74 74 74 74 74 73 73 72 71 71 71 70 70 70 70 70 70 71 72 74 76 77 77 77 77 78 78 77 76 76 76 76 76 76 76 76 76 76 76 76 76 76 77 78 78 78 78 78 77 77 77 77 76 76 74 72 70 68 67 68 70 72 72 71 70 68 65 59 54 48 44 41 39 38 37 36 35 34 32 30 28 26 24 22 20 18
74 74 74 74 74 73 73 72 71 70 70 70 70 70 70 70 70 71 72 74 76 77 77 77 78 78 78 77 76 76 76 77 77 76 76 76 76 75 75 75 75 76 76 76 77 78 78 78 77 77 77 77 76 75 73 71 70 69 70 71 73 73 72 71 69 66 62 56 51 46 42 40 38 37 36 34 33 32 30 28 27 26 25 24 22 21
75 74 74 74 74 74 73 73 72 71 71 70 70 70 70 70 70 71 72 74 75 76 77 78 78 78 78 77 76 76 76 76 76 76 76 76 76 76 74 74 74 74 75 76 76 77 77 77 77 77 77 76 76 74 72 71 70 71 72 74 75 74 73 71 69 65 60 55 50 47 44 42 40 39 37 35 34 32 30 29 28 27 26 26 24 24
76 75 74 74 74 74 74 74 74 73 72 71 70 70 70 70 70 70 72 73 74 76 77 77 77 77 77 77 76 76 76 76 76 76 76 76 76 76 75 74 74 74 74 75 76 76 76 76 76 76 76 76 74 74 72 72 72 74 76 76 76 76 74 72 69 66 61 56 53 50 48 46 44 42 40 38 36 34 33 32 30 29 28 27 26 26
76 76 76 76 76 76 76 76 75 74 74 73 72 71 70 70 69 69 70 71 73 74 76 76 76 77 77 77 76 76 76 76 76 76 76 76 76 76 76 75 75 76 76 76 76 76 76 76 76 76 75 74 74 74 73 74 75 76 77 77 77 77 76 74 72 68 64 60 58 56 54 52 50 48 45 43 42 40 38 37 35 34 32 31 30 29
76 76 76 76 76 76 76 76 76 76 74 74 73 72 71 70 69 68 68 69 71 72 74 74 76 76 76 76 76 76 76 76 76 76 76 76 76 76 76 76 76 76 76 76 76 76 76 76 76 76 75 74 74 74 75 76 76 77 77 77 78 77 77 76 74 72 69 66 64 63 62 60 58 56 54 52 50 47 45 44 42 40 39 38 36 35
Wind_Speed
77 77 77 76 75 74 74 74 73 73 73 73 72 72 72 71 71 71 71 71 71 71 71 71 71 70 70 70 70 70 70 70 70 69 69 69 69 69 69 68 68 68 68 68 68 68 68 68 68 68 68 68 69 69 69 69 68 68 68 67 67 67 67 67 66 66 66 65 65 64 64 63 63 63 62 62 62 61 61 61 61 60 60 60 60 60
75 75 75 75 74 74 74 74 73 72 72 72 72 72 71 71 71 71 71 70 70 71 71 70 70 70 69 69 69 69 69 69 69 69 69 69 69 69 69 69 69 69 69 69 68 68 68 68 68 68 68 68 68 68 68 67 67 67 67 67 66 66 66 66 66 65 65 65 64 64 64 63 63 63 62 62 62 62 61 61 61 61 61 61 61 61
73 73 73 73 73 72 72 72 72 72 72 72 71 71 71 70 70 70 70 70 70 70 70 70 70 69 69 69 69 68 68 68 68 68 68 68 68 69 69 69 69 69 69 69 68 68 68 68 68 67 67 67 67 67 66 66 66 66 65 65 65 65 65 65 65 64 64 64 64 63 63 63 62 62 62 62 62 62 61 61 61 61 61 61 61 61
70 70 71 71 71 71 71 71 71 71 71 71 70 70 70 70 70 70 70 70 70 70 70 70 69 69 69 68 68 68 68 68 67 67 67 67 67 68 68 68 68 68 68 68 68 68 68 68 67 67 67 66 66 66 65 65 65 64 64 64 64 64 64 64 64 63 63 63 63 62 62 62 62 61 61 61 61 61 61 61 61 61 61 62 62 62
69 69 70 69 68 69 70 70 69 69 69 69 69 69 69 69 70 70 70 69 69 70 70 69 69 69 68 68 68 68 67 67 67 67 67 67 67 67 67 67 67 67 67 67 67 67 67 67 67 67 66 66 65 65 64 64 64 64 63 63 63 63 63 63 63 63 62 62 62 61 61 61 61 61 61 61 61 61 61 61 61 61 61 62 62 62
67 68 68 67 67 67 68 68 67 67 67 68 68 68 68 68 69 69 68 68 69 69 69 69 68 68 68 68 68 68 68 67 67 67 67 67 66 66 66 66 66 67 67 67 67 67 67 66 66 66 65 65 64 64 64 63 63 63 63 63 63 63 62 62 62 62 62 61 61 61 61 60 60 60 60 60 60 60 60 60 60 61 61 61 61 62
65 66 66 66 66 67 66 66 66 66 66 66 66 67 67 67 67 67 67 67 68 68 68 68 68 68 68 68 68 68 68 68 67 67 67 67 66 66 66 66 66 66 66 66 66 66 66 66 65 65 65 64 64 64 63 63 63 63 63 63 62 62 62 62 62 62 62 61 61 61 60 60 60 60 60 60 60 60 60 60 60 60 60 61 61 61
63 64 65 65 66 66 65 65 65 65 64 64 64 64 65 65 66 66 66 66 67 67 67 67 67 68 68 68 68 68 68 67 67 67 67 67 66 66 66 66 66 66 66 66 65 65 65 65 65 64 64 64 64 63 63 63 63 63 63 63 63 62 62 62 62 62 62 61 61 61 60 60 60 60 60 60 59 59 60 60 60 60 60 61 61 61
60 61 63 64 64 64 64 64 64 64 63 63 63 63 63 63 64 64 64 65 65 66 67 67 67 67 68 68 67 67 67 67 67 67 67 67 66 66 66 66 66 66 66 65 65 65 65 65 65 64 64 64 64 63 63 63 63 63 63 63 63 62 62 62 62 62 62 62 61 61 61 61 60 60 60 60 60 60 60 60 60 60 60 60 61 61
58 59 60 61 62 63 63 63 63 63 63 62 62 62 62 62 62 62 62 63 64 65 66 66 66 67 67 67 67 67 66 67 67 67 67 66 66 66 66 66 66 66 66 66 65 65 65 65 65 64 64 64 64 64 63 63 63 63 63 63 63 63 63 63 62 62 62 62 62 62 61 61 61 60 60 60 60 60 60 60 60 60 60 61 61 61
56 57 58 59 60 61 62 62 63 63 62 62 62 62 62 61 61 60 60 61 63 64 64 65 65 66 66 66 66 66 66 66 66 66 66 66 66 66 66 66 66 66 66 66 66 66 65 65 65 65 65 64 64 64 64 64 63 63 63 63 63 63 63 63 63 63 62 62 62 62 62 62 61 61 61 61 61 60 60 60 60 61 61 61 61 61
55 56 57 58 58 59 60 61 62 62 61 61 61 61 61 61 61 60 59 60 61 62 62 64 64 65 65 65 65 65 65 65 65 65 65 65 66 66 66 66 66 66 66 66 66 66 66 66 66 66 65 65 65 64 64 64 64 64 64 63 63 63 63 63 63 63 62 62 62 62 62 62 62 62 62 61 61 61 61 61 61 61 61 61 61 62
54 55 55 56 57 58 58 59 60 60 60 61 61 61 60 60 60 59 59 60 60 61 62 62 63 63 64 64 64 64 64 64 65 65 65 65 65 65 65 66 66 66 66 66 66 66 66 66 66 66 66 66 65 65 65 64 64 64 64 64 63 63 63 63 62 62 62 62 62 62 62 62 62 62 62 62 62 62 62 61 61 61 61 62 62 62
52 53 54 54 55 56 57 57 57 57 58 59 60 60 60 60 59 58 58 59 60 61 61 61 62 62 63 63 63 63 63 63 64 65 65 65 66 66 66 66 66 66 66 66 66 67 67 67 66 66 66 66 66 66 65 65 65 64 64 64 63 63 63 62 62 62 62 62 62 62 62 62 62 62 62 62 62 62 62 62 62 62 62 62 62 62
50 51 52 53 54 54 54 54 54 55 56 57 58 59 59 58 58 58 58 59 59 60 59 60 61 62 62 62 62 62 62 62 63 64 64 65 66 66 65 65 66 66 66 66 67 67 67 67 66 66 67 66 66 66 66 65 65 64 64 63 63 62 62 62 61 61 61 61 61 62 62 62 62 62 62 62 62 62 61 61 62 62 62 62 62 62
50 50 51 52 53 53 53 53 53 54 55 56 57 57 57 58 58 58 58 58 58 58 58 58 59 60 61 61 62 61 61 61 62 63 64 64 65 65 64 64 65 66 66 66 66 66 66 66 66 66 66 66 66 66 66 65 65 64 64 63 63 62 62 61 61 61 61 61 61 61 61 61 61 61 61 61 61 61 61 61 61 61 62 62 62 63
50 50 51 52 53 53 53 54 55 55 56 57 57 57 57 58 58 58 58 58 58 57 57 57 57 58 59 60 61 61 60 61 62 63 63 64 64 64 63 63 64 64 65 65 65 65 65 65 65 65 66 66 66 65 65 65 64 64 63 63 62 62 61 61 61 61 61 61 61 61 61 61 61 61 61 61 61 61 61 61 61 61 62 62 62 63
50 51 52 52 53 54 54 55 56 57 58 58 58 58 59 59 59 59 59 59 58 58 58 58 58 58 59 59 60 61 60 60 61 62 62 62 63 63 62 61 62 63 63 63 64 64 64 64 65 65 65 65 65 65 65 65 64 64 63 63 62 62 61 61 61 60 60 61 61 61 61 61 60 60 60 60 60 60 60 61 61 61 61 62 62 63
51 52 53 53 54 54 55 56 57 59 60 60 60 60 60 60 60 60 60 60 60 60 60 59 59 59 59 60 60 60 58 59 60 61 61 61 61 61 60 59 60 61 62 62 62 63 63 64 64 65 65 65 65 65 65 65 64 64 64 63 63 62 62 61 61 60 60 60 61 61 60 60 60 60 60 60 60 60 60 60 61 61 61 62 62 63
52 53 54 55 55 55 56 56 57 59 61 62 62 62 62 62 62 62 62 62 61 61 61 60 60 60 59 59 59 58 57 57 57 58 58 58 58 58 57 57 58 59 60 60 61 61 61 62 63 64 64 65 65 65 65 65 64 64 64 64 63 62 62 61 61 60 60 60 61 61 60 60 60 59 59 59 59 60 60 60 60 61 61 61 62 62
52 54 55 55 56 57 57 58 58 59 61 62 63 63 63 63 63 63 62 62 61 61 61 60 60 59 58 57 57 56 56 54 54 55 55 55 54 55 55 55 56 56 57 57 58 58 58 59 60 61 62 63 64 64 64 64 64 64 64 64 63 62 62 61 61 60 61 61 61 61 60 60 60 59 59 59 59 59 59 60 60 60 61 61 61 62
52 53 54 55 56 57 58 58 59 60 61 62 63 64 64 63 63 62 61 60 60 60 60 60 59 58 56 55 55 55 54 53 52 53 53 52 52 52 53 52 52 53 53 54 54 53 54 55 57 58 59 60 61 62 62 63 63 63 63 63 62 62 61 61 61 61 61 61 61 61 61 60 60 59 59 59 59 59 59 59 60 60 61 61 61 62
51 52 53 53 54 56 57 57 58 60 61 62 62 63 63 62 61 60 59 59 58 58 58 57 57 55 54 53 53 53 53 52 52 52 51 51 50 50 49 47 47 48 49 49 49 48 49 51 53 55 56 57 58 59 59 60 61 61 61 61 61 61 61 61 61 61 61 62 62 62 62 61 60 60 59 59 58 59 59 59 60 60 60 61 61 62
50 50 51 51 52 53 54 55 56 57 59 59 60 60 60 59 58 58 57 56 56 55 55 54 53 53 52 52 52 52 52 52 52 51 51 51 50 48 45 42 42 43 45 46 45 45 46 49 51 53 53 54 55 55 56 57 58 58 59 59 59 59 60 60 61 61 62 62 63 63 63 62 61 60 59 59 58 58 59 59 59 60 60 61 61 62
48 49 49 49 50 51 51 52 53 54 55 55 56 56 56 56 55 55 54 54 53 53 53 52 51 51 52 51 51 52 52 52 52 52 51 51 50 47 45 43 43 44 46 46 46 46 47 49 51 52 52 52 52 52 53 54 54 55 56 56 57 58 59 60 61 61 62 62 63 64 64 63 62 60 59 58 58 58 58 59 59 60 60 61 61 62
47 48 47 47 47 48 48 49 49 50 50 51 51 52 52 52 51 51 51 51 51 51 51 51 51 51 51 51 51 52 52 52 52 52 51 51 50 48 47 47 47 48 50 50 50 50 50 51 52 52 51 51 51 51 51 52 52 53 54 55 56 58 59 60 61 61 62 63 63 64 64 63 62 61 59 58 58 58 58 59 59 60 60 61 61 62
47 47 47 46 46 46 47 47 47 47 47 48 48 48 48 48 48 48 49 49 50 50 49 50 50 51 51 51 51 52 53 52 51 51 51 50 49 49 50 51 52 53 54 54 55 54 54 54 54 54 53 52 51 51 51 51 52 53 54 55 56 58 59 60 61 61 62 62 63 64 64 63 62 60 59 58 58 58 58 58 59 59 60 61 61 62
48 47 47 46 46 46 46 46 47 47 46 46 46 46 46 46 47 48 48 49 49 49 49 50 50 51 51 51 52 52 52 51 50 50 50 49 49 50 51 52 53 54 55 56 57 56 56 56 56 56 55 54 53 52 52 52 53 54 55 56 57 58 58 59 60 61 61 62 62 62 62 61 60 59 58 58 58 58 58 58 58 59 59 60 61 61
48 48 47 47 46 47 47 47 47 47 47 47 47 46 47 47 48 49 49 49 49 49 50 50 50 50 50 51 51 50 50 49 49 49 49 49 50 51 52 52 53 54 55 55 56 56 56 57 57 57 57 56 54 53 53 53 54 55 55 56 57 57 58 58 59 59 60 60 61 61 60 59 59 58 58 58 58 58 58 58 58 58 59 59 60 60
49 49 48 48 48 48 48 49 49 49 49 48 48 48 48 48 49 49 50 49 49 50 50 50 50 49 49 49 48 48 48 48 49 48 48 49 50 52 52 52 53 53 54 54 54 55 56 57 57 57 57 56 55 54 54 54 54 55 56 56 56 56 57 57 57 58 59 59 59 59 58 57 57 57 57 57 57 57 57 58 58 58 58 58 59 59
50 49 49 49 48 49 49 49 50 50 50 50 50 49 49 49 50 50 49 49 49 49 49 49 48 48 47 47 47 47 47 48 48 48 48 49 51 52 52 52 53 53 53 53 54 55 56 56 56 56 56 55 55 54 54 54 54 55 55 56 56 56 56 56 56 57 57 57 57 56 56 56 56 56 56 57 57 57 57 57 57 57 57 57 58 58
50 50 50 49 49 49 49 50 50 50 51 51 50 50 50 50 50 50 49 49 49 48 48 47 47 46 46 46 46 47 47 48 48 48 49 50 51 52 51 52 52 53 52 53 53 54 55 55 55 55 55 54 54 54 53 53 54 54 55 55 55 55 55 55 55 56 56 56 55 55 54 55 55 55 56 56 57 57 57 57 57 57 57 57 57 57
51 51 50 50 49 49 49 50 50 51 51 51 51 51 50 50 50 49 49 48 48 47 47 46 46 46 46 46 47 47 48 48 48 49 49 50 51 51 51 51 51 52 52 52 53 53 54 54 53 53 53 53 53 53 53 53 53 54 54 54 55 54 54 54 54 54 54 54 54 53 54 54 54 55 55 56 56 57 56 56 56 55 55 55 55 55
51 51 50 50 49 49 49 50 50 51 51 51 51 51 50 50 50 49 49 48 48 47 47 46 46 46 46 47 47 48 48 49 49 49 49 50 50 50 50 50 50 50 50 51 51 52 52 53 53 53 53 53 52 52 52 52 53 54 54 54 54 54 53 53 53 53 53 53 53 53 53 53 54 54 55 55 56 55 55 54 54 53 53 53 53 53
50 50 50 49 49 49 49 50 50 51 51 51 51 51 50 50 50 49 49 48 48 47 47 47 46 47 47 47 48 48 49 49 49 49 49 50 50 50 49 49 49 49 49 50 50 51 52 52 52 52 52 52 52 52 52 52 53 53 53 53 53 53 52 52 52 52 52 52 52 52 53 53 53 54 54 54 54 53 52 51 51 50 51 51 51 51
50 50 49 49 49 49 49 50 50 51 51 51 51 50 50 49 49 48 48 48 47 47 47 47 47 47 48 48 48 49 49 49 49 49 49 49 49 49 49 49 49 49 49 50 50 51 51 52 52 51 51 51 51 51 51 52 52 52 53 53 52 52 51 51 50 50 50 50 51 51 52 52 53 53 53 52 51 49 48 48 48 48 48 48 49 49
50 50 49 49 49 49 49 50 50 50 51 51 50 50 49 49 48 48 47 47 46 46 46 46 47 47 48 48 49 49 49 49 49 49 49 49 49 49 49 49 49 49 50 51 51 51 52 52 52 51 51 51 51 51 51 51 51 51 52 51 51 50 50 49 49 49 49 49 49 50 50 51 51 51 50 49 47 46 46 46 46 46 47 47 47 47
50 50 50 49 49 49 49 50 50 50 50 50 50 50 49 49 48 47 46 46 46 46 46 46 47 47 48 48 49 49 49 49 49 48 49 49 49 49 50 50 50 50 51 52 52 52 52 52 52 52 51 51 51 50 50 50 50 50 50 50 49 48 48 47 47 47 47 48 48 49 49 49 49 48 47 45 45 44 44 44 45 45 45 45 46 46
50 50 50 50 50 50 50 50 50 50 50 50 50 50 49 49 48 47 47 46 46 46 46 47 47 47 48 48 48 49 48 48 48 48 49 49 50 50 51 52 52 52 52 52 53 53 53 53 53 52 52 51 51 51 50 50 50 49 49 48 47 46 46 45 45 45 45 46 46 47 47 47 46 45 44 44 43 43 43 44 44 44 44 44 44 45
51 50 50 50 50 50 50 50 50 50 50 50 50 49 49 49 48 48 47 47 47 47 47 48 48 48 48 48 48 48 48 48 48 48 49 49 50 51 52 52 53 53 53 53 54 54 54 54 53 53 53 52 52 52 51 50 50 49 48 46 46 45 44 43 43 43 44 44 45 45 45 44 43 43 43 43 43 43 43 43 43 43 43 43 43 43
50 51 50 50 50 50 50 50 50 50 50 50 50 50 49 49 49 49 48 48 48 49 49 49 48 48 47 47 47 47 47 47 48 48 49 50 50 51 52 53 53 54 54 54 54 54 54 54 54 54 53 53 53 52 52 51 50 48 47 46 45 44 43 42 42 42 42 43 43 43 43 42 42 42 42 42 42 42 42 42 42 42 42 42 42 42
50 50 50 50 50 50 50 50 50 50 50 50 50 50 49 49 49 49 49 49 49 49 49 48 48 48 47 47 47 47 47 47 48 48 49 50 50 51 52 53 54 54 54 55 55 55 55 54 54 54 54 53 53 52 52 51 49 48 47 46 44 43 42 41 41 41 42 42 42 41 41 41 41 41 41 41 41 41 41 41 41 41 41 41 40 41
49 50 50 50 50 50 50 50 50 50 50 49 49 49 49 49 49 49 49 49 48 48 48 48 48 47 47 47 47 47 47 48 48 49 49 50 50 51 52 53 53 54 54 55 55 55 55 54 54 54 53 53 53 52 52 50 49 48 46 45 43 43 42 42 41 41 41 41 41 40 40 40 40 40 40 40 40 40 40 40 40 40 40 40 39 39
49 49 49 50 50 50 50 50 49 49 49 49 49 49 49 49 48 48 48 48 47 47 47 47 47 47 47 47 47 48 48 48 49 49 49 50 50 51 51 52 52 53 53 54 54 54 53 53 53 53 53 53 52 52 51 50 49 47 46 44 43 43 42 42 41 41 41 40 40 39 39 39 39 39 39 39 39 39 39 39 39 39 39 39 39 39
48 49 49 49 49 49 49 49 49 49 49 49 48 48 48 48 47 47 47 47 47 47 47 47 47 47 47 47 48 48 48 49 49 50 50 50 50 50 51 51 51 51 52 52 52 52 52 52 52 52 52 52 52 51 50 49 48 46 45 43 43 42 42 41 41 40 40 39 39 38 38 37 37 37 37 38 38 38 38 38 38 38 38 38 38 38
48 48 48 48 48 48 48 48 48 48 48 48 48 48 47 47 47 46 46 46 46 46 46 46 46 47 47 47 48 48 49 49 49 50 50 50 50 50 50 50 49 49 49 49 49 50 50 50 50 50 51 51 50 50 49 48 47 45 44 43 42 42 42 41 41 40 39 39 38 37 37 36 36 36 36 36 37 37 37 37 38 38 38 38 38 38
48 48 48 48 48 48 48 48 48 48 48 48 47 47 47 47 46 46 46 46 46 46 46 46 46 46 46 47 47 47 48 49 49 49 49 50 49 49 49 48 48 47 47 47 47 47 48 48 49 49 49 49 49 48 47 46 45 44 44 43 42 42 42 41 40 40 39 38 37 36 36 35 35 35 35 35 36 36 36 37 37 37 38 38 38 38
47 48 48 48 48 48 48 48 48 48 48 47 47 47 47 46 46 46 46 46 46 45 45 45 45 45 45 45 46 46 47 47 48 48 48 48 48 48 47 47 46 45 45 45 45 45 46 46 47 47 47 47 47 46 45 45 44 43 43 42 42 42 41 41 40 39 39 38 37 36 35 35 35 35 35 35 35 36 36 36 37 37 37 37 37 38
46 47 47 48 48 48 48 48 48 48 47 47 47 47 47 46 46 46 46 46 45 45 45 44 44 43 43 44 44 45 45 46 46 47 47 47 47 46 46 45 44 43 43 43 43 43 44 45 45 45 46 45 45 44 44 43 43 43 42 42 42 42 41 41 40 40 39 38 37 36 36 35 35 35 35 35 35 36 36 36 36 36 37 37 37 37
45 46 46 47 47 47 47 47 47 47 47 47 47 46 46 46 46 46 46 46 45 45 44 44 43 42 42 42 42 43 43 44 45 45 45 45 45 45 45 44 43 42 42 42 42 42 42 43 43 44 44 44 43 43 43 42 42 42 42 42 42 41 41 41 41 40 39 39 38 37 36 36 36 36 36 36 36 36 36 37 37 36 36 36 36 36
44 44 45 45 45 46 46 46 46 46 46 46 46 46 46 46 46 46 46 45 45 45 44 43 42 41 41 41 41 41 42 42 43 44 44 44 44 44 44 43 42 42 41 41 41 41 41 41 42 42 42 42 42 42 42 42 42 42 42 42 42 41 41 41 41 41 40 39 39 38 37 37 37 37 37 37 37 37 37 37 37 37 37 36 36 36
Wind_Direction
242 242 242 242 242 242 242 241 241 240 240 240 239 239 239 239 239 239 239 239 239 239 239 239 239 239 239 239 240 240 240 241 240 240 240 240 241 241 242 242 243 244 244 245 245 246 246 246 247 247 247 247 247 248 248 249 250 250 250 251 251 252 252 252 252 253 253 253 253 253 253 253 253 254 254 254 255 255 256 256 257 257 258 258 259 259
241 241 241 241 241 241 241 240 240 240 239 239 239 239 238 238 238 238 238 238 238 239 239 239 239 239 239 239 239 240 240 241 241 241 241 241 241 242 242 242 243 243 244 245 245 246 246 246 246 247 247 247 248 248 249 249 250 250 250 251 251 251 251 252 252 252 252 252 252 252 252 252 253 253 254 254 254 255 255 256 256 257 257 258 259 259
241 241 240 240 240 239 239 239 239 239 238 238 238 238 238 238 238 238 238 238 238 238 238 239 239 239 239 239 239 240 240 241 241 242 242 242 242 242 242 243 243 243 244 244 245 245 246 246 246 247 247 248 248 248 249 249 249 250 250 250 251 251 251 251 251 251 251 251 251 251 252 252 252 253 253 253 254 254 255 256 256 257 257 258 258 259
241 240 239 239 238 238 238 238 238 238 237 237 237 237 237 237 237 237 237 237 237 238 238 238 238 239 239 239 239 239 240 241 241 242 242 242 242 243 243 243 243 244 244 244 245 245 246 246 246 247 247 248 248 248 249 249 249 249 250 250 250 250 251 251 251 251 251 251 251 251 252 252 252 252 253 253 253 254 254 255 255 256 256 257 257 258
241 240 239 238 237 237 237 237 237 237 236 236 236 236 236 236 236 236 236 237 237 237 237 237 238 238 238 238 239 239 239 240 241 241 242 242 243 243 243 243 244 244 244 245 245 245 246 246 247 247 247 248 248 248 248 249 249 249 249 250 250 250 250 250 250 251 251 251 251 251 251 252 252 252 252 253 253 253 254 254 255 255 256 256 257 257
241 240 239 238 237 237 236 236 236 236 236 236 236 235 235 235 235 236 236 236 236 236 236 237 237 237 237 238 238 238 239 239 240 240 241 242 242 243 243 243 244 244 244 245 245 246 246 246 247 247 247 247 248 248 248 248 248 249 249 249 249 250 250 250 250 250 251 251 251 251 251 252 252 252 252 252 253 253 253 254 254 254 255 255 256 256
241 240 239 238 238 237 236 236 235 235 235 235 235 235 235 235 235 235 235 235 235 236 236 236 236 237 237 237 238 238 238 239 239 240 241 241 242 242 243 243 243 244 244 245 245 245 246 246 246 247 247 247 248 248 248 248 248 248 248 249 249 249 249 249 250 250 250 251 251 251 251 252 252 252 252 252 253 253 253 253 254 254 254 255 255 255
241 240 239 239 238 237 236 236 235 235 234 234 234 234 234 234 234 235 235 235 235 235 235 236 236 236 236 237 237 238 238 239 239 240 240 241 241 242 242 242 243 243 244 244 245 245 245 246 246 246 247 247 247 248 248 248 248 248 248 248 248 249 249 249 249 250 250 250 251 251 251 251 251 252 252 252 252 252 253 253 253 253 254 254 254 255
240 240 239 239 238 237 236 236 235 235 234 234 234 234 234 234 234 234 234 235 235 235 235 235 236 236 236 237 237 237 238 238 239 239 240 240 241 241 242 242 242 243 243 243 244 244 245 245 245 246 246 246 247 247 247 247 248 248 248 248 248 248 249 249 249 250 250 250 250 251 251 251 251 251 252 252 252 252 252 253 253 253 253 254 254 254
239 239 239 238 238 237 236 236 236 235 235 234 234 234 234 234 234 234 234 234 235 235 235 235 235 236 236 236 237 237 238 238 239 239 240 240 241 241 241 242 242 242 243 243 243 244 244 245 245 245 246 246 246 247 247 247 247 247 248 248 248 248 249 249 249 250 250 250 250 251 251 251 251 251 251 251 252 252 252 252 252 253 253 253 254 254
237 238 238 238 238 238 237 237 236 236 235 234 234 234 234 233 233 233 233 234 235 235 235 235 236 236 236 236 237 237 238 238 239 239 240 240 240 241 241 241 242 242 242 243 243 244 244 244 245 245 246 246 246 246 247 247 247 247 247 248 248 248 249 249 249 250 250 250 251 251 251 251 251 251 251 251 251 251 252 252 252 252 253 253 253 254
237 237 237 237 237 237 237 237 237 236 236 235 234 234 234 234 233 233 233 234 234 235 235 235 236 236 236 236 237 237 238 238 239 239 240 240 240 241 241 242 242 242 243 243 244 244 245 245 245 246 246 246 246 246 247 247 247 247 247 248 248 248 249 249 249 250 250 250 251 251 251 251 251 251 251 251 251 251 251 251 252 252 252 253 253 253
237 237 237 238 238 238 238 238 238 237 237 236 235 234 234 234 234 233 233 234 235 235 235 236 236 236 236 236 237 237 238 238 239 240 240 240 240 241 241 242 242 243 243 244 244 245 246 246 246 247 247 247 247 247 247 247 247 247 247 248 248 248 249 249 249 250 250 250 251 251 251 251 251 251 251 251 251 251 251 251 251 252 252 252 252 253
237 238 238 239 239 240 240 239 239 239 239 238 237 236 236 235 235 234 234 234 235 235 236 236 236 237 237 237 237 237 238 239 239 240 240 241 241 241 242 242 243 244 244 245 245 246 246 247 247 247 248 247 247 247 247 247 247 248 248 248 248 248 248 249 249 250 250 250 250 251 251 251 251 251 251 251 251 251 251 251 251 251 251 252 252 252
238 238 239 239 240 240 239 239 239 239 240 239 239 238 238 237 236 236 235 235 236 236 236 237 237 238 238 237 237 237 238 239 240 241 241 242 242 242 243 243 244 245 245 246 246 247 247 248 248 248 248 248 248 248 248 248 248 248 248 248 248 248 248 249 249 250 250 250 250 250 251 251 251 251 251 251 251 251 251 251 251 251 251 251 252 252
238 239 239 239 239 239 237 237 237 237 239 239 239 239 239 239 238 237 237 237 237 237 237 238 238 239 239 239 238 237 238 239 240 241 242 242 243 243 244 244 245 246 247 247 247 247 248 248 248 248 248 248 248 248 248 248 248 248 248 248 248 248 248 249 249 249 250 250 250 250 250 250 250 250 250 250 250 251 251 251 251 251 251 251 251 252
239 239 239 239 239 238 236 235 234 235 236 237 238 239 239 239 239 238 238 238 239 239 239 238 239 240 241 241 240 239 238 240 241 242 242 243 244 244 244 245 246 247 247 248 248 248 248 248 248 248 248 248 248 247 247 247 247 248 248 248 248 248 248 249 249 249 250 250 250 250 250 250 250 250 250 250 250 251 251 251 251 251 251 251 251 252
240 240 240 239 239 238 237 234 233 233 234 235 236 237 238 239 239 239 239 239 239 239 239 239 239 240 241 242 242 241 240 241 242 243 243 244 244 245 245 245 246 247 248 248 248 248 248 248 248 248 247 247 247 247 247 247 247 247 247 248 248 248 248 248 248 249 249 250 250 250 250 250 250 250 250 251 251 251 251 251 251 251 251 251 251 251
241 240 240 240 240 239 238 236 234 233 233 234 235 236 237 238 238 238 239 239 240 240 240 240 240 241 242 243 243 243 243 243 244 244 244 244 244 245 245 245 246 247 248 248 249 249 248 248 248 248 247 247 247 246 246 246 247 247 247 247 247 247 247 247 248 248 249 249 249 249 250 250 250 250 251 251 251 251 251 251 251 251 251 251 251 251
240 240 239 240 240 240 239 237 236 235 234 235 235 236 236 237 238 239 239 240 240 241 241 241 241 242 242 243 244 244 244 244 244 244 244 244 244 245 245 246 246 247 248 248 248 248 248 248 248 247 247 247 246 246 246 246 246 246 246 246 246 246 246 247 247 248 248 248 249 249 249 250 250 250 251 251 251 251 251 251 251 251 251 251 251 251
239 239 239 239 239 239 239 239 238 237 236 236 237 237 238 238 239 240 240 241 242 242 242 242 242 242 242 243 244 244 244 243 243 243 243 244 244 245 246 246 246 247 247 247 247 247 247 247 247 247 247 246 246 246 246 246 246 246 246 246 245 245 245 246 246 247 247 248 248 248 249 249 250 250 251 251 251 251 251 251 251 251 251 251 251 251
239 239 239 239 239 239 239 239 239 238 238 238 238 239 239 240 241 241 242 242 243 243 243 243 242 242 242 242 243 243 242 241 241 241 242 243 244 245 246 246 245 245 245 245 245 245 245 245 245 245 245 246 246 246 246 246 246 246 245 245 245 244 245 245 246 246 247 247 248 248 248 249 249 250 251 251 251 251 251 251 251 251 251 251 251 251
240 240 239 239 239 239 239 239 238 238 238 238 238 239 240 241 242 242 243 243 243 243 243 242 242 242 242 241 241 240 240 239 238 239 239 240 241 242 243 244 244 244 244 244 244 245 245 244 244 244 244 244 244 245 245 245 245 245 245 244 244 244 244 245 246 246 247 247 248 248 248 249 249 250 250 251 251 251 251 251 251 251 251 251 251 251
241 240 240 240 239 239 239 239 238 238 238 238 238 239 240 241 241 242 242 242 241 241 241 241 240 240 239 239 238 238 237 237 236 237 237 237 237 237 237 238 240 242 243 244 244 245 245 245 245 244 243 243 243 243 243 244 244 244 244 244 244 244 245 246 246 247 247 248 248 248 248 248 248 249 249 250 251 251 251 251 251 251 251 251 251 251
241 240 239 239 239 239 239 239 238 237 237 237 238 238 239 240 240 240 240 240 239 238 238 237 236 236 236 236 235 235 236 236 235 235 235 235 234 232 230 231 233 236 239 240 241 242 243 245 246 246 245 244 243 242 242 242 242 243 244 244 244 245 246 247 247 248 248 248 248 248 248 248 248 248 249 250 250 251 251 251 251 251 250 250 250 250
240 239 237 237 237 238 239 238 238 237 237 236 237 237 237 238 238 238 238 237 236 235 235 234 233 233 234 233 234 234 235 235 234 234 234 233 232 230 228 227 228 230 234 236 237 238 240 243 246 247 247 246 244 243 242 242 243 244 244 245 245 246 247 248 248 249 249 249 249 248 248 247 247 247 248 249 250 250 251 251 251 251 250 250 250 250
238 237 235 234 235 236 237 238 238 237 236 236 236 236 236 236 237 236 236 235 234 234 233 232 232 232 232 232 233 233 234 234 233 233 233 233 232 231 230 229 228 230 232 234 235 237 239 242 245 248 249 249 247 246 245 245 245 245 246 246 247 247 248 248 249 249 249 249 249 248 247 246 246 246 247 249 250 250 251 251 251 251 251 250 250 250
236 234 232 232 233 235 236 237 237 237 236 236 236 235 236 236 236 236 235 234 233 233 232 232 232 232 232 232 232 233 233 233 233 233 233 233 234 234 234 233 233 234 235 236 237 238 239 242 244 247 249 250 250 249 248 248 247 247 247 247 248 248 248 249 249 249 249 249 249 248 247 245 245 245 247 248 249 250 251 251 251 251 251 251 250 250
235 232 230 230 232 234 235 236 236 236 236 236 236 236 236 236 235 235 234 234 233 232 232 231 231 231 232 232 232 233 233 233 234 234 235 236 236 237 238 238 238 239 239 240 240 241 241 242 244 246 248 250 251 251 251 250 250 249 249 249 249 249 249 249 249 249 249 249 248 247 246 244 244 245 246 248 249 251 251 252 252 252 251 251 250 250
233 231 229 230 231 233 235 236 236 236 236 236 236 236 236 235 235 234 233 232 232 231 231 231 231 232 232 233 233 234 234 235 236 237 238 238 239 240 240 241 241 241 241 242 242 242 243 243 244 245 247 249 250 251 251 251 251 250 250 250 250 250 249 249 249 248 248 248 247 246 244 244 244 245 246 248 250 251 252 252 252 252 252 251 251 250
231 230 230 230 232 233 235 235 236 236 236 236 236 236 235 234 234 233 232 231 231 231 231 231 232 232 233 234 235 236 237 237 238 239 240 241 242 242 243 243 243 243 243 243 243 243 244 244 245 245 246 248 249 250 251 251 251 251 251 251 250 250 250 249 248 248 248 247 246 245 244 244 244 245 247 249 250 252 253 253 253 253 252 251 251 250
231 230 230 231 232 233 234 235 235 236 236 236 236 235 234 234 233 232 231 231 231 231 232 232 233 234 235 236 237 238 239 240 240 241 242 243 244 244 244 244 244 244 244 243 244 244 245 245 245 245 246 247 248 249 249 250 250 250 250 250 250 250 249 249 248 248 247 247 246 245 244 244 245 246 248 250 251 253 253 254 254 253 252 251 250 250
230 230 230 231 232 233 234 234 234 235 235 235 235 235 234 233 233 232 232 232 232 232 233 234 235 236 237 238 239 240 241 241 242 243 243 244 245 245 245 245 244 244 244 244 244 244 245 245 246 246 246 246 247 248 248 249 249 249 249 250 249 249 249 248 248 247 247 246 245 245 245 245 246 247 249 251 252 253 254 254 254 253 252 251 250 249
230 230 231 232 232 233 233 233 233 234 235 235 235 235 235 234 233 233 233 233 233 233 234 235 236 237 238 239 240 241 242 243 243 244 245 245 245 245 245 245 245 245 244 244 244 244 245 245 246 246 246 246 247 247 248 248 248 248 249 249 249 248 248 248 247 247 246 246 245 245 245 246 247 249 250 252 253 254 254 254 253 251 250 249 248 247
230 231 231 232 232 232 232 232 232 233 234 234 235 235 235 235 235 234 234 234 234 235 235 236 237 238 239 240 241 242 243 244 244 245 246 246 247 247 246 246 245 245 245 245 245 245 246 246 246 246 246 247 247 247 248 248 248 248 248 248 248 248 248 247 247 247 246 246 245 246 246 247 248 250 251 252 253 253 253 252 250 249 248 247 246 245
230 231 231 232 232 232 231 231 232 232 233 234 235 235 236 236 236 236 236 236 236 236 236 237 237 238 239 240 241 243 244 244 245 246 247 248 248 248 248 247 247 246 246 246 246 246 247 247 247 247 247 247 248 248 248 248 248 249 249 248 248 248 247 247 247 246 246 246 246 246 247 248 249 250 251 252 252 251 249 248 246 245 245 244 244 243
230 231 231 231 231 231 231 231 231 232 232 233 234 235 236 237 237 238 238 238 237 237 237 237 238 239 240 241 242 243 244 245 246 247 248 248 249 249 248 248 248 248 247 247 248 248 248 249 249 249 249 249 249 248 248 248 248 248 248 248 248 247 247 246 246 246 246 246 246 246 247 248 249 250 250 250 248 247 245 244 243 242 242 242 242 242
230 230 230 230 231 231 231 231 231 232 232 233 234 235 236 237 238 239 239 239 239 239 239 239 239 240 240 241 242 244 244 245 246 246 247 248 248 248 248 248 248 248 247 248 248 248 249 249 250 250 250 250 250 250 249 249 248 248 248 248 247 247 246 246 245 245 245 245 245 246 247 247 248 248 247 246 244 242 241 240 240 240 240 240 240 241
229 229 229 230 230 230 230 231 231 231 232 233 234 235 236 237 238 239 240 240 241 241 241 241 241 242 242 243 244 245 246 246 246 246 246 246 247 247 247 247 247 247 247 247 247 248 248 249 249 250 250 251 251 250 250 249 249 248 248 247 247 246 245 245 244 244 245 245 245 245 245 245 245 244 243 241 239 238 238 238 238 239 239 239 240 240
228 228 228 229 229 230 230 230 231 231 232 233 234 235 236 237 238 239 240 241 241 242 242 243 244 244 245 246 246 247 247 247 246 246 245 245 245 245 246 246 246 246 246 246 247 247 247 247 248 248 249 249 250 250 250 249 249 248 247 247 246 245 245 244 244 244 244 243 243 243 243 242 241 240 239 238 237 236 236 237 237 238 238 239 239 239
227 227 228 228 229 229 230 230 231 231 232 233 234 235 236 237 238 239 240 241 242 242 243 244 245 246 247 247 248 248 247 247 246 246 245 245 244 245 245 245 246 246 246 246 246 246 246 246 246 247 247 248 248 249 249 248 247 247 246 246 245 245 245 244 244 243 243 242 241 240 240 239 238 237 236 236 235 235 235 236 236 237 237 238 238 238
226 227 227 228 228 229 230 230 231 232 232 233 234 235 236 237 237 238 239 240 241 242 244 244 245 246 247 247 248 248 248 247 247 246 245 245 244 244 245 245 245 246 246 246 246 246 245 245 245 246 246 246 247 247 247 247 246 245 245 245 245 245 245 244 243 242 241 240 238 237 237 236 236 235 235 234 234 234 234 234 235 235 236 236 236 236
226 226 227 228 228 229 229 230 231 232 232 233 234 235 236 236 237 238 239 240 241 242 243 244 245 245 246 246 247 247 247 247 247 246 245 245 245 244 245 245 245 246 246 246 246 245 245 245 245 245 245 246 246 246 246 245 244 244 243 244 244 245 246 245 243 241 240 238 236 235 235 234 234 234 233 233 232 232 232 233 233 234 234 235 235 235
226 227 227 228 228 229 230 230 231 232 233 234 234 235 236 236 237 237 238 239 240 241 242 243 244 244 245 245 246 246 246 246 246 246 245 245 244 244 244 245 245 245 245 245 245 244 244 244 244 244 244 245 245 245 244 243 243 242 242 243 244 244 245 244 242 240 238 236 234 233 233 232 232 231 231 231 230 231 231 231 232 233 233 234 234 234
227 227 228 228 229 230 230 231 232 232 233 234 235 235 236 236 237 237 238 239 240 241 241 242 243 243 244 244 245 245 245 245 245 245 244 244 244 244 244 244 244 244 244 244 244 243 243 243 243 243 243 244 244 243 242 242 241 241 241 242 243 243 243 242 240 238 236 234 232 231 230 230 229 229 229 229 229 229 230 230 231 232 232 233 233 233
227 228 229 229 230 231 231 232 232 233 234 234 235 235 236 236 236 237 238 238 239 240 241 241 242 242 243 243 243 244 244 243 243 243 243 243 243 243 243 243 243 243 243 242 242 242 242 241 242 242 242 242 242 242 241 240 240 240 240 241 241 241 241 239 237 235 233 232 230 229 228 227 227 227 227 227 228 228 229 229 230 231 231 232 232 232
228 228 229 230 231 231 232 232 233 234 234 235 235 235 236 236 236 237 237 238 239 239 240 241 241 241 242 242 242 242 242 242 242 242 242 242 241 241 241 241 241 241 241 241 240 240 240 240 240 241 241 241 240 239 239 238 238 238 239 239 239 239 238 237 235 233 231 230 228 227 226 225 225 226 226 227 227 228 228 229 229 230 230 231 231 231
228 229 229 230 231 231 232 233 233 234 234 234 235 235 235 235 236 236 237 237 238 239 239 240 240 240 241 241 241 241 241 241 241 241 240 240 240 240 240 240 239 239 239 239 239 239 239 239 239 239 239 239 238 237 237 236 237 237 237 237 237 236 235 234 232 231 229 228 227 225 224 224 225 225 226 226 227 227 228 228 228 229 229 230 230 230
228 229 229 230 230 231 232 232 233 234 234 234 234 235 235 235 235 236 236 237 237 238 238 239 239 240 240 240 240 240 240 240 240 240 239 239 239 239 238 238 237 237 237 237 237 238 238 238 238 238 237 237 236 235 235 234 234 235 235 234 234 234 233 232 231 229 228 227 226 225 224 224 224 225 225 226 227 227 227 228 228 228 229 229 229 230
228 229 229 230 230 231 231 232 232 233 233 234 234 234 234 234 235 235 236 236 237 237 238 238 239 239 239 239 239 239 239 239 239 239 238 238 238 238 237 236 236 236 235 236 236 237 237 237 237 236 236 235 234 233 232 232 232 232 232 232 232 232 232 231 230 229 228 227 226 225 225 225 224 225 225 226 226 227 227 228 228 228 228 229 229 230
229 229 229 229 229 230 230 231 231 232 233 233 234 234 234 234 234 235 235 236 236 237 237 238 238 239 239 239 239 239 239 239 238 238 238 238 237 237 236 235 235 234 234 234 235 235 236 236 235 235 234 233 232 231 230 229 229 229 229 230 231 231 232 231 230 229 229 228 227 227 226 226 225 225 226 226 226 227 227 228 229 229 229 229 229 230